TimeEDT,TemperatureF,Dew PointF,Humidity,Sea Level PressureIn,VisibilityMPH,Wind Direction,Wind SpeedMPH,Gust SpeedMPH,PrecipitationIn,Events,Conditions,WindDirDegrees,DateUTC
12:54 AM,55.9,53.1,90,30.39,10.0,SSE,5.8,-,N/A,,Clear,150,2013-08-25 04:54:00
1:54 AM,55.0,52.0,89,30.38,10.0,SE,3.5,-,N/A,,Clear,130,2013-08-25 05:54:00
2:54 AM,54.0,52.0,93,30.38,10.0,SE,4.6,-,N/A,,Clear,140,2013-08-25 06:54:00
3:54 AM,52.0,50.0,93,30.38,10.0,SE,5.8,-,N/A,,Clear,130,2013-08-25 07:54:00
4:54 AM,53.1,50.0,89,30.39,10.0,SE,5.8,-,N/A,,Clear,130,2013-08-25 08:54:00
5:54 AM,53.1,50.0,89,30.39,10.0,ESE,9.2,-,N/A,,Clear,120,2013-08-25 09:54:00
6:54 AM,55.0,51.1,86,30.40,10.0,SE,8.1,-,N/A,,Clear,140,2013-08-25 10:54:00
7:54 AM,57.9,52.0,81,30.40,10.0,SE,4.6,-,N/A,,Clear,130,2013-08-25 11:54:00
8:54 AM,63.0,55.0,75,30.39,10.0,SE,11.5,-,N/A,,Clear,140,2013-08-25 12:54:00
9:54 AM,71.1,57.0,61,30.37,10.0,ESE,10.4,-,N/A,,Clear,120,2013-08-25 13:54:00
10:54 AM,78.1,57.9,50,30.35,10.0,Variable,6.9,-,N/A,,Clear,0,2013-08-25 14:54:00
11:54 AM,80.1,55.0,42,30.35,10.0,Variable,5.8,-,N/A,,Clear,0,2013-08-25 15:54:00
12:54 PM,82.0,54.0,38,30.32,10.0,SW,5.8,-,N/A,,Scattered Clouds,220,2013-08-25 16:54:00
1:54 PM,80.1,53.1,39,30.31,10.0,WSW,6.9,-,N/A,,Partly Cloudy,240,2013-08-25 17:54:00
2:54 PM,82.0,55.0,39,30.30,10.0,Variable,5.8,-,N/A,,Scattered Clouds,0,2013-08-25 18:54:00
3:54 PM,82.0,54.0,38,30.27,10.0,WSW,5.8,-,N/A,,Scattered Clouds,250,2013-08-25 19:54:00
4:54 PM,84.0,55.9,38,30.25,10.0,West,5.8,-,N/A,,Scattered Clouds,280,2013-08-25 20:54:00
5:54 PM,82.0,54.0,38,30.24,10.0,Calm,Calm,-,N/A,,Clear,0,2013-08-25 21:54:00
6:54 PM,79.0,57.9,48,30.23,10.0,Calm,Calm,-,N/A,,Clear,0,2013-08-25 22:54:00
7:54 PM,73.0,61.0,66,30.22,10.0,Calm,Calm,-,N/A,,Clear,0,2013-08-25 23:54:00
8:54 PM,70.0,62.1,76,30.22,10.0,South,3.5,-,N/A,,Clear,180,2013-08-26 00:54:00
9:54 PM,69.1,61.0,75,30.22,10.0,SSE,3.5,-,N/A,,Partly Cloudy,160,2013-08-26 01:54:00
10:54 PM,66.9,60.1,79,30.22,10.0,SSE,4.6,-,N/A,,Scattered Clouds,160,2013-08-26 02:54:00
11:54 PM,68.0,60.1,76,30.25,10.0,Calm,Calm,-,N/A,,Mostly Cloudy,0,2013-08-26 03:54:00